Morristown, NJ

7:40 PM EDT on April 29, 2017 (GMT -0400)
Morristown Municipal

Weather History for KMMU - January, 2013

Change the Weather History Date:

Sunday, January 20, 2013

  Actual Average Record
Temperature  
Mean Temperature 40 °F -  
Max Temperature 51 °F 36 °F 62 °F (1951)
Min Temperature 28 °F 15 °F -12 °F (1948)
Degree Days  
Heating Degree Days 26    
Moisture  
Dew Point 23 °F    
Average Humidity 58    
Maximum Humidity 81    
Minimum Humidity 20    
Precipitation  
Precipitation 0.00 in - - ()
Sea Level Pressure  
Sea Level Pressure 29.86 in    
Wind  
Wind Speed 6 mph (West)    
Max Wind Speed 28 mph    
Max Gust Speed 47 mph    
Visibility 10 miles    
Events      
Averages and records for this station are not official NWS values.
T = Trace of Precipitation, MM = Missing Value Source: NWS Daily Summary

Daily Weather History Graph

Daily Weather History Graph

Search for Another Location

Airport or City:

Trip Planner

Search our weather history database for the weather conditions in past years. The results will help you decide how hot, cold, wet, or windy it might be!

Date:

Astronomy

Jan. 20, 2013 Rise Set
Actual Time 7:17 AM EST 5:00 PM EST
Civil Twilight 6:47 AM EST 5:30 PM EST
Nautical Twilight 6:13 AM EST 6:04 PM EST
Astronomical Twilight 5:41 AM EST 6:36 PM EST
Moon 12:00 PM EST (1/20) 1:46 AM EST (1/20)
Length of Visible Light 10h 43m
Length of Day
9h 43m
Waxing Gibbous, 66% of the Moon is Illuminated
Jan 20
Waxing Gibbous
Jan 26
Full
Feb 3
Last Quarter
Feb 10
New
Feb 17
First Quarter

Hourly Weather History & Observations

Time (EST) Temp. Windchill Dew Point Humidity Pressure Visibility Wind Dir Wind Speed Gust Speed Precip Events Conditions
12:15 AM 39.2 °F 37.0 °F 30.2 °F 70% 29.90 in 10.0 mi SSW 3.5 mph - N/A   Clear
12:35 AM 39.2 °F 35.9 °F 30.2 °F 70% 29.89 in 10.0 mi SSW 4.6 mph - N/A   Clear
12:55 AM 37.4 °F 33.8 °F 30.2 °F 75% 29.87 in 10.0 mi SSW 4.6 mph - N/A   Clear
1:15 AM 37.4 °F - 28.4 °F 70% 29.87 in 10.0 mi Calm Calm - N/A   Clear
1:35 AM 37.4 °F - 30.2 °F 75% 29.86 in 10.0 mi Calm Calm - N/A   Clear
1:55 AM 35.6 °F 32.8 °F 28.4 °F 75% 29.86 in 10.0 mi SSW 3.5 mph - N/A   Clear
2:15 AM 35.6 °F 32.8 °F 28.4 °F 75% 29.86 in 10.0 mi SSW 3.5 mph - N/A   Clear
2:35 AM 35.6 °F 32.8 °F 30.2 °F 81% 29.85 in 10.0 mi SSW 3.5 mph - N/A   Clear
2:55 AM 37.4 °F 34.9 °F 30.2 °F 75% 29.84 in 10.0 mi SW 3.5 mph - N/A   Clear
3:15 AM 37.4 °F 33.8 °F 30.2 °F 75% 29.83 in 10.0 mi SSW 4.6 mph - N/A   Clear
3:35 AM 35.6 °F 31.7 °F 30.2 °F 81% 29.82 in 10.0 mi SSW 4.6 mph - N/A   Clear
3:55 AM 35.6 °F 32.8 °F 30.2 °F 81% 29.82 in 10.0 mi SSW 3.5 mph - N/A   Clear
4:15 AM 35.6 °F 32.8 °F 30.2 °F 81% 29.80 in 10.0 mi SSW 3.5 mph - N/A   Clear
4:35 AM 35.6 °F 32.8 °F 30.2 °F 81% 29.79 in 10.0 mi SSW 3.5 mph - N/A   Clear
4:55 AM 35.6 °F 31.7 °F 30.2 °F 81% 29.78 in 10.0 mi SSW 4.6 mph - N/A   Clear
5:15 AM 35.6 °F - 30.2 °F 81% 29.77 in 10.0 mi Calm Calm - N/A   Clear
5:35 AM 33.8 °F - 28.4 °F 81% 29.77 in 10.0 mi Calm Calm - N/A   Clear
6:45 AM 35.6 °F 29.9 °F 28.4 °F 75% 29.75 in 10.0 mi SW 6.9 mph - N/A   Clear
7:44 AM 39.2 °F 32.0 °F 28.4 °F 65% 29.74 in 10.0 mi WSW 11.5 mph 18.4 mph N/A   Clear
8:45 AM 42.8 °F 35.8 °F 28.4 °F 57% 29.75 in 10.0 mi WSW 13.8 mph 23.0 mph N/A   Scattered Clouds
9:45 AM 46.4 °F 40.7 °F 28.4 °F 50% 29.75 in 10.0 mi WSW 12.7 mph 19.6 mph N/A   Scattered Clouds
10:45 AM 50.0 °F - 28.4 °F 43% 29.73 in 10.0 mi WSW 12.7 mph 26.5 mph N/A   Mostly Cloudy
11:45 AM 50.0 °F - 28.4 °F 43% 29.72 in 10.0 mi West 15.0 mph 23.0 mph N/A   Mostly Cloudy
12:45 PM 51.8 °F - 24.8 °F 35% 29.70 in 10.0 mi West 19.6 mph 31.1 mph N/A   Scattered Clouds
1:45 PM 51.8 °F - 24.8 °F 35% 29.71 in 10.0 mi WNW 8.1 mph 19.6 mph N/A   Partly Cloudy
2:45 PM 50.0 °F - 10.4 °F 20% 29.75 in 10.0 mi WNW 27.6 mph 47.2 mph N/A   Partly Cloudy
3:45 PM 48.2 °F - 12.2 °F 24% 29.78 in 10.0 mi WNW 17.3 mph 32.2 mph N/A   Partly Cloudy
4:45 PM 46.4 °F 39.2 °F 12.2 °F 25% 29.83 in 10.0 mi WNW 18.4 mph 38.0 mph N/A   Partly Cloudy
5:45 PM 42.8 °F 35.1 °F 12.2 °F 29% 29.88 in 10.0 mi WNW 16.1 mph 31.1 mph N/A   Clear
6:45 PM 39.2 °F 34.2 °F 14.0 °F 36% 29.92 in 7.0 mi NNW 6.9 mph 17.3 mph N/A   Clear
7:45 PM 35.6 °F 29.9 °F 14.0 °F 41% 29.97 in 7.0 mi NNW 6.9 mph 13.8 mph N/A   Clear
8:45 PM 33.8 °F 29.6 °F 12.2 °F 41% 30.00 in 10.0 mi NNW 4.6 mph 13.8 mph N/A   Clear
9:45 PM 32.0 °F 25.6 °F 14.0 °F 48% 30.02 in 10.0 mi North 6.9 mph 13.8 mph N/A   Clear
9:55 PM 32.0 °F 23.0 °F 14.0 °F 48% 30.02 in 10.0 mi NW 11.5 mph - N/A   Clear
10:15 PM 30.2 °F 19.8 °F 14.0 °F 51% 30.03 in 10.0 mi NW 13.8 mph 18.4 mph N/A   Clear
10:35 PM 30.2 °F 20.8 °F 14.0 °F 51% 30.03 in 10.0 mi WNW 11.5 mph 17.3 mph N/A   Clear
10:55 PM 30.2 °F 22.6 °F 14.0 °F 51% 30.03 in 10.0 mi WNW 8.1 mph - N/A   Clear
11:15 PM 28.4 °F 19.1 °F 12.2 °F 51% 30.04 in 10.0 mi NNW 10.4 mph 18.4 mph N/A   Clear
11:35 PM 28.4 °F 20.4 °F 12.2 °F 51% 30.05 in 10.0 mi NW 8.1 mph - N/A   Clear
11:55 PM 28.4 °F 19.7 °F 12.2 °F 51% 30.05 in 10.0 mi NW 9.2 mph - N/A   Clear